Flag for U.S.A. Weather past 2 weeks in Gloucester, Massachusetts, U.S.A.

Now
16 °F

Heavy snow. Ice fog.


Feels Like: 0 °F
Forecast: 20 / 27 °F
Wind: 18 mph from North

Location: Beverly Municipal Airport

Current Time: Jan 27, 2015 at 10:18:11 AM

Latest Report: Jan 27, 2015 at 9:53 AM


Visibility: 0 mi

Pressure: 29.53 "Hg

Humidity: 80%

Dew point: 11 °F

Location of GloucesterLocation

Historic Weather in Gloucester — Graph

°F

Gloucester temperature yesterday

Maximum temperature yesterday: 28 °F (at 6:53 PM)
Minimum temperature yesterday: 7 °F (at 5:53 AM)
Average temperature yesterday: 18 °F

Past Weeks' High & Low Weather Summary

 TemperatureHumidityPressure
High50 °F (Jan 18, 3:53 PM)93% (Jan 15, 3:53 PM)30.65 "Hg (Jan 15, 3:53 PM)
Low7 °F (Jan 17, 6:53 AM)24% (Jan 17, 1:53 PM)29.15 "Hg (Jan 24, 4:53 PM)
Average27 °F64%29.99 "Hg
* Reported Jan 12 8:53 AM — Jan 27 8:53 AM, Gloucester, Weather by CustomWeather, © 2014

Note: Actual official high and low records may vary slightly from our data, if they occured in-between our weather recording intervals... More about our weather records

Advertising

Gloucester weather history for previous 24 hours

 ConditionsComfort  
Time TempWeatherWind HumidityBarometerVisibility
8:53 AM
Jan 27
15 °FHeavy snow. Ice fog.21 mph83%29.54 "Hg0 mi
7:53 AM15 °FIce fog.17 mph80%29.57 "Hg0 mi
6:53 AM15 °FIce fog.20 mph80%29.59 "Hg0 mi
5:53 AM14 °FIce fog.18 mph80%29.59 "Hg1 mi
4:53 AM15 °FIce fog.24 mph80%29.61 "Hg0 mi
3:53 AM15 °FIce fog.20 mph80%29.65 "Hg1 mi
3:01 AM16 °FIce fog.16 mph80%29.70 "Hg1 mi
1:53 AM16 °FIce fog.17 mph84%29.71 "Hg1 mi
12:53 AM16 °FIce fog.20 mph84%29.77 "Hg0 mi
11:53 PM
Jan 26
18 °FSnow. Ice fog.21 mph80%29.81 "Hg1 mi
10:53 PM19 °FSnow. Ice fog.18 mph85%29.88 "Hg1 mi
9:59 PM26 °FLight snow. Ice fog.17 mph84%29.93 "Hg1 mi
9:00 PM28 °FLight snow. Mostly cloudy.17 mph75%29.98 "Hg2 mi
7:53 PM27 °FLight snow. Overcast.15 mph78%30.01 "Hg1 mi
6:53 PM28 °FLight snow. Mostly cloudy.15 mph72%30.03 "Hg2 mi
5:53 PM27 °FLight snow. Mostly cloudy.12 mph72%30.04 "Hg3 mi
4:53 PM27 °FOvercast.12 mph69%30.04 "Hg10 mi
4:01 PM26 °FLight snow. Mostly cloudy.12 mph74%30.06 "Hg3 mi
3:02 PM26 °FLight snow. Overcast.10 mph74%30.06 "Hg2 mi
1:53 PM25 °FLight snow. Cloudy.13 mph78%30.06 "Hg1 mi
1:00 PM24 °FLight snow. Overcast.15 mph71%30.07 "Hg2 mi
11:53 AM24 °FOvercast.13 mph68%30.09 "Hg9 mi
10:53 AM18 °FLight snow. Overcast.9 mph71%30.14 "Hg7 mi
Weather by CustomWeather, © 2014

See weather overviewHow to use our weather pages